Time,TemperatureF,DewpointF,PressureIn,WindDirection,WindDirectionDegrees,WindSpeedMPH,WindSpeedGustMPH,Humidity,HourlyPrecipIn,Conditions,Clouds,dailyrainin,SolarRadiationWatts/m^2,SoftwareType,DateUTC
2013-05-14 00:04:00,67.0,65.0,-100.00,SSE,164,0.0,3.0,94,0.00,,,0.65,0.000000,,2013-05-14 10:04:00,
2013-05-14 00:11:00,66.0,64.0,-100.00,SE,146,0.0,0.0,92,0.00,,,0.65,0.000000,,2013-05-14 10:11:00,
2013-05-14 00:33:00,66.0,64.0,-100.00,SE,146,0.0,0.0,92,0.00,,,0.65,0.000000,,2013-05-14 10:33:00,
2013-05-14 00:42:00,66.0,64.0,-100.00,SE,146,0.0,0.0,92,0.00,,,0.65,0.000000,,2013-05-14 10:42:00,
2013-05-14 00:52:00,66.0,64.0,-100.00,SE,146,0.0,0.0,92,0.00,,,0.65,0.000000,,2013-05-14 10:52:00,
2013-05-14 01:02:00,66.0,64.0,-100.00,SE,146,0.0,0.0,92,0.00,,,0.65,0.000000,,2013-05-14 11:02:00,
2013-05-14 01:11:00,65.0,63.0,-100.00,NE,38,0.0,0.0,94,0.00,,,0.65,0.000000,,2013-05-14 11:11:00,
2013-05-14 01:32:00,65.0,63.0,-100.00,NE,38,0.0,0.0,94,0.00,,,0.65,0.000000,,2013-05-14 11:32:00,
2013-05-14 01:43:00,65.0,63.0,-100.00,NE,38,0.0,0.0,94,0.00,,,0.65,0.000000,,2013-05-14 11:43:00,
2013-05-14 01:53:00,65.0,63.0,-100.00,NE,38,0.0,0.0,94,0.00,,,0.65,0.000000,,2013-05-14 11:53:00,
2013-05-14 02:02:00,65.0,63.0,-100.00,NE,38,0.0,0.0,94,0.00,,,0.65,0.000000,,2013-05-14 12:02:00,
2013-05-14 02:11:00,67.0,64.0,-100.00,South,186,2.0,4.0,90,0.00,,,0.65,0.000000,,2013-05-14 12:11:00,
2013-05-14 02:42:00,67.0,64.0,-100.00,South,186,2.0,4.0,90,0.00,,,0.65,0.000000,,2013-05-14 12:42:00,
2013-05-14 02:52:00,67.0,64.0,-100.00,South,186,2.0,4.0,90,0.00,,,0.65,0.000000,,2013-05-14 12:52:00,
2013-05-14 03:01:00,67.0,64.0,-100.00,South,186,2.0,4.0,90,0.00,,,0.65,0.000000,,2013-05-14 13:01:00,
2013-05-14 03:11:00,66.0,62.0,-100.00,South,184,1.0,5.0,87,0.00,,,0.65,0.000000,,2013-05-14 13:11:00,
2013-05-14 03:42:00,66.0,62.0,-100.00,South,184,1.0,5.0,87,0.00,,,0.65,0.000000,,2013-05-14 13:42:00,
2013-05-14 03:52:00,66.0,62.0,-100.00,South,184,1.0,5.0,87,0.00,,,0.65,0.000000,,2013-05-14 13:52:00,
2013-05-14 04:01:00,66.0,62.0,-100.00,South,184,1.0,5.0,87,0.00,,,0.65,0.000000,,2013-05-14 14:01:00,
2013-05-14 04:11:00,64.0,59.0,-100.00,NE,37,0.0,5.0,85,0.00,,,0.65,0.000000,,2013-05-14 14:11:00,
2013-05-14 04:32:00,64.0,59.0,-100.00,NE,37,0.0,5.0,85,0.00,,,0.65,0.000000,,2013-05-14 14:32:00,
2013-05-14 04:42:00,64.0,59.0,-100.00,NE,37,0.0,5.0,85,0.00,,,0.65,0.000000,,2013-05-14 14:42:00,
2013-05-14 04:52:00,64.0,59.0,-100.00,NE,37,0.0,5.0,85,0.00,,,0.65,0.000000,,2013-05-14 14:52:00,
2013-05-14 05:01:00,64.0,59.0,-100.00,NE,37,0.0,5.0,85,0.00,,,0.65,0.000000,,2013-05-14 15:01:00,
2013-05-14 05:11:00,64.0,58.0,-100.00,NNE,32,0.0,0.0,80,0.00,,,0.65,0.000000,,2013-05-14 15:11:00,
2013-05-14 05:33:00,64.0,58.0,-100.00,NNE,32,0.0,0.0,80,0.00,,,0.65,0.000000,,2013-05-14 15:33:00,
2013-05-14 05:43:00,64.0,58.0,-100.00,NNE,32,0.0,0.0,80,0.00,,,0.65,0.000000,,2013-05-14 15:43:00,
2013-05-14 05:53:00,64.0,58.0,-100.00,NNE,32,0.0,0.0,80,0.00,,,0.65,0.000000,,2013-05-14 15:53:00,
2013-05-14 06:02:00,64.0,58.0,-100.00,NNE,32,0.0,0.0,80,0.00,,,0.65,0.000000,,2013-05-14 16:02:00,
2013-05-14 06:11:00,64.0,55.0,-100.00,SSE,164,0.0,0.0,73,0.00,,,0.65,1.000000,,2013-05-14 16:11:00,
2013-05-14 06:33:00,64.0,55.0,-100.00,SSE,164,0.0,0.0,73,0.00,,,0.65,1.000000,,2013-05-14 16:33:00,
2013-05-14 06:44:00,64.0,55.0,-100.00,SSE,164,0.0,0.0,73,0.00,,,0.65,1.000000,,2013-05-14 16:44:00,
2013-05-14 06:54:00,64.0,55.0,-100.00,SSE,164,0.0,0.0,73,0.00,,,0.65,1.000000,,2013-05-14 16:54:00,
2013-05-14 07:03:00,64.0,55.0,-100.00,SSE,164,0.0,0.0,73,0.00,,,0.65,1.000000,,2013-05-14 17:03:00,
2013-05-14 07:11:00,65.0,53.0,-100.00,ESE,110,0.0,2.0,66,0.00,,,0.65,33.000000,,2013-05-14 17:11:00,
2013-05-14 07:43:00,65.0,53.0,-100.00,ESE,110,0.0,2.0,66,0.00,,,0.65,33.000000,,2013-05-14 17:43:00,
2013-05-14 07:52:00,65.0,53.0,-100.00,ESE,110,0.0,2.0,66,0.00,,,0.65,33.000000,,2013-05-14 17:52:00,
2013-05-14 08:02:00,65.0,53.0,-100.00,ESE,110,0.0,2.0,66,0.00,,,0.65,33.000000,,2013-05-14 18:02:00,
2013-05-14 08:11:00,72.0,67.0,-100.00,SSW,196,0.0,0.0,84,0.00,,,-99.99,118.000000,,2013-05-14 18:11:00,
2013-05-14 08:42:00,72.0,67.0,-100.00,SSW,196,0.0,0.0,84,0.00,,,-99.99,118.000000,,2013-05-14 18:42:00,
2013-05-14 08:52:00,72.0,67.0,-100.00,SSW,196,0.0,0.0,84,0.00,,,-99.99,118.000000,,2013-05-14 18:52:00,
2013-05-14 09:01:00,72.0,67.0,-100.00,SSW,196,0.0,0.0,84,0.00,,,-99.99,118.000000,,2013-05-14 19:01:00,
2013-05-14 09:11:00,73.0,68.0,-100.00,WNW,288,0.0,3.0,85,0.00,,,0.64,411.000000,,2013-05-14 19:11:00,
2013-05-14 09:42:00,73.0,68.0,-100.00,WNW,288,0.0,3.0,85,0.00,,,0.64,411.000000,,2013-05-14 19:42:00,
2013-05-14 09:52:00,73.0,68.0,-100.00,WNW,288,0.0,3.0,85,0.00,,,0.64,411.000000,,2013-05-14 19:52:00,
2013-05-14 10:02:00,73.0,68.0,-100.00,WNW,288,0.0,3.0,85,0.00,,,0.64,411.000000,,2013-05-14 20:02:00,
2013-05-14 10:11:00,73.0,68.0,-100.00,NW,323,0.0,0.0,83,0.00,,,-99.99,330.000000,,2013-05-14 20:11:00,
2013-05-14 10:44:00,73.0,68.0,-100.00,NW,323,0.0,0.0,83,0.00,,,-99.99,330.000000,,2013-05-14 20:44:00,
2013-05-14 10:52:00,73.0,68.0,-100.00,NW,323,0.0,0.0,83,0.00,,,-99.99,330.000000,,2013-05-14 20:52:00,
2013-05-14 11:03:00,73.0,68.0,-100.00,NW,323,0.0,0.0,83,0.00,,,-99.99,330.000000,,2013-05-14 21:03:00,
2013-05-14 12:11:00,74.0,66.0,-100.00,NNE,18,0.0,7.0,76,-99.99,,,0.58,686.000000,,2013-05-14 22:11:00,
2013-05-14 12:45:00,74.0,66.0,-100.00,NNE,18,0.0,7.0,76,-99.99,,,0.58,686.000000,,2013-05-14 22:45:00,
2013-05-14 12:54:00,74.0,66.0,-100.00,NNE,18,0.0,7.0,76,-99.99,,,0.58,686.000000,,2013-05-14 22:54:00,
2013-05-14 13:03:00,74.0,66.0,-100.00,NNE,18,0.0,7.0,76,-99.99,,,0.58,686.000000,,2013-05-14 23:03:00,
2013-05-14 13:11:00,76.0,66.0,-100.00,West,269,0.0,4.0,71,0.00,,,0.50,703.000000,,2013-05-14 23:11:00,
2013-05-14 13:32:00,76.0,66.0,-100.00,West,269,0.0,4.0,71,0.00,,,0.50,703.000000,,2013-05-14 23:32:00,
2013-05-14 13:44:00,76.0,66.0,-100.00,West,269,0.0,4.0,71,0.00,,,0.50,703.000000,,2013-05-14 23:44:00,
2013-05-14 13:52:00,76.0,66.0,-100.00,West,269,0.0,4.0,71,0.00,,,0.50,703.000000,,2013-05-14 23:52:00,
2013-05-14 14:01:00,76.0,66.0,-100.00,West,269,0.0,4.0,71,0.00,,,0.50,703.000000,,2013-05-15 00:01:00,
2013-05-14 15:11:00,82.0,68.0,-100.00,WSW,243,2.0,6.0,62,-99.99,,,0.08,944.000000,,2013-05-15 01:11:00,
2013-05-14 15:32:00,82.0,68.0,-100.00,WSW,243,2.0,6.0,62,-99.99,,,0.08,944.000000,,2013-05-15 01:32:00,
2013-05-14 15:42:00,82.0,68.0,-100.00,WSW,243,2.0,6.0,62,-99.99,,,0.08,944.000000,,2013-05-15 01:42:00,
2013-05-14 15:52:00,82.0,68.0,-100.00,WSW,243,2.0,6.0,62,-99.99,,,0.08,944.000000,,2013-05-15 01:52:00,
2013-05-14 16:01:00,82.0,68.0,-100.00,WSW,243,2.0,6.0,62,-99.99,,,0.08,944.000000,,2013-05-15 02:01:00,
2013-05-14 16:11:00,78.0,67.0,-100.00,WSW,251,3.0,10.0,68,0.00,,,0.06,657.000000,,2013-05-15 02:11:00,
2013-05-14 16:32:00,78.0,67.0,-100.00,WSW,251,3.0,10.0,68,0.00,,,0.06,657.000000,,2013-05-15 02:32:00,
2013-05-14 16:42:00,78.0,67.0,-100.00,WSW,251,3.0,10.0,68,0.00,,,0.06,657.000000,,2013-05-15 02:42:00,
2013-05-14 16:52:00,78.0,67.0,-100.00,WSW,251,3.0,10.0,68,0.00,,,0.06,657.000000,,2013-05-15 02:52:00,
2013-05-14 17:01:00,78.0,67.0,-100.00,WSW,251,3.0,10.0,68,0.00,,,0.06,657.000000,,2013-05-15 03:01:00,
2013-05-14 17:11:00,80.0,67.0,-100.00,WSW,245,2.0,8.0,65,0.00,,,0.01,630.000000,,2013-05-15 03:11:00,
2013-05-14 17:44:00,80.0,67.0,-100.00,WSW,245,2.0,8.0,65,0.00,,,0.01,630.000000,,2013-05-15 03:44:00,
2013-05-14 17:54:00,80.0,67.0,-100.00,WSW,245,2.0,8.0,65,0.00,,,0.01,630.000000,,2013-05-15 03:54:00,
2013-05-14 18:03:00,80.0,67.0,-100.00,WSW,245,2.0,8.0,65,0.00,,,0.01,630.000000,,2013-05-15 04:03:00,
2013-05-14 18:11:00,79.0,66.0,-100.00,SSW,207,1.0,7.0,65,0.00,,,0.01,131.000000,,2013-05-15 04:11:00,
2013-05-14 18:33:00,79.0,66.0,-100.00,SSW,207,1.0,7.0,65,0.00,,,0.01,131.000000,,2013-05-15 04:33:00,
2013-05-14 18:43:00,79.0,66.0,-100.00,SSW,207,1.0,7.0,65,0.00,,,0.01,131.000000,,2013-05-15 04:43:00,
2013-05-14 18:52:00,79.0,66.0,-100.00,SSW,207,1.0,7.0,65,0.00,,,0.01,131.000000,,2013-05-15 04:52:00,
2013-05-14 19:02:00,79.0,66.0,-100.00,SSW,207,1.0,7.0,65,0.00,,,0.01,131.000000,,2013-05-15 05:02:00,
2013-05-14 19:11:00,72.0,65.0,-100.00,South,178,0.0,5.0,78,0.00,,,0.01,24.000000,,2013-05-15 05:11:00,
2013-05-14 19:42:00,72.0,65.0,-100.00,South,178,0.0,5.0,78,0.00,,,0.01,24.000000,,2013-05-15 05:42:00,
2013-05-14 19:52:00,72.0,65.0,-100.00,South,178,0.0,5.0,78,0.00,,,0.01,24.000000,,2013-05-15 05:52:00,
2013-05-14 20:02:00,72.0,65.0,-100.00,South,178,0.0,5.0,78,0.00,,,0.01,24.000000,,2013-05-15 06:02:00,
2013-05-14 20:11:00,69.0,63.0,-100.00,NE,46,0.0,4.0,80,0.00,,,0.01,0.000000,,2013-05-15 06:11:00,
2013-05-14 20:32:00,69.0,63.0,-100.00,NE,46,0.0,4.0,80,0.00,,,0.01,0.000000,,2013-05-15 06:32:00,
2013-05-14 20:42:00,69.0,63.0,-100.00,NE,46,0.0,4.0,80,0.00,,,0.01,0.000000,,2013-05-15 06:42:00,
2013-05-14 20:52:00,69.0,63.0,-100.00,NE,46,0.0,4.0,80,0.00,,,0.01,0.000000,,2013-05-15 06:52:00,
2013-05-14 21:01:00,69.0,63.0,-100.00,NE,46,0.0,4.0,80,0.00,,,0.01,0.000000,,2013-05-15 07:01:00,
2013-05-14 21:11:00,68.0,60.0,-100.00,South,188,0.0,4.0,76,0.00,,,0.01,0.000000,,2013-05-15 07:11:00,
2013-05-14 21:32:00,68.0,60.0,-100.00,South,188,0.0,4.0,76,0.00,,,0.01,0.000000,,2013-05-15 07:32:00,
2013-05-14 21:42:00,68.0,60.0,-100.00,South,188,0.0,4.0,76,0.00,,,0.01,0.000000,,2013-05-15 07:42:00,
2013-05-14 21:52:00,68.0,60.0,-100.00,South,188,0.0,4.0,76,0.00,,,0.01,0.000000,,2013-05-15 07:52:00,
2013-05-14 22:02:00,68.0,60.0,-100.00,South,188,0.0,4.0,76,0.00,,,0.01,0.000000,,2013-05-15 08:02:00,
2013-05-14 22:11:00,69.0,60.0,-100.00,NE,54,1.0,8.0,74,0.00,,,0.01,0.000000,,2013-05-15 08:11:00,
2013-05-14 22:32:00,69.0,60.0,-100.00,NE,54,1.0,8.0,74,0.00,,,0.01,0.000000,,2013-05-15 08:32:00,
2013-05-14 22:42:00,69.0,60.0,-100.00,NE,54,1.0,8.0,74,0.00,,,0.01,0.000000,,2013-05-15 08:42:00,
2013-05-14 22:53:00,69.0,60.0,-100.00,NE,54,1.0,8.0,74,0.00,,,0.01,0.000000,,2013-05-15 08:53:00,
2013-05-14 23:01:00,69.0,60.0,-100.00,NE,54,1.0,8.0,74,0.00,,,0.01,0.000000,,2013-05-15 09:01:00,
2013-05-14 23:11:00,68.0,58.0,-100.00,SW,235,0.0,6.0,71,0.00,,,0.01,0.000000,,2013-05-15 09:11:00,
2013-05-14 23:33:00,68.0,58.0,-100.00,SW,235,0.0,6.0,71,0.00,,,0.01,0.000000,,2013-05-15 09:33:00,
2013-05-14 23:42:00,68.0,58.0,-100.00,SW,235,0.0,6.0,71,0.00,,,0.01,0.000000,,2013-05-15 09:42:00,
2013-05-14 23:53:00,68.0,58.0,-100.00,SW,235,0.0,6.0,71,0.00,,,0.01,0.000000,,2013-05-15 09:53:00,